一网星座-0405星 (ONEWEB-0405 )

导读 | 星芒AI

ONEWE-0405 是 OneWeb 卫星通信公司星座计划中的一颗低轨通信卫星,主要用于提供全球宽带互联网服务。该卫星属于 OneWeb 第四批发射任务中的第五颗,采用标准化设计,部署在约 1200 公里的太阳同步轨道上。OneWeb 星座旨在为偏远和未覆盖地区提供高速、低延迟的互联网连接,支持政府、企业及民用用户。该卫星由空中客车防务与航天公司制造,于 2021 年发射,是实现 OneWeb 全球通信网络的重要组成部分。

基本信息
目录编号:
50485
目录名称:
ONEWEB-0405
国际标识:
2021-132S
轨道中心:
EARTH
卫星名称:
一网星座-0405星
卫星全名:
一网星座-0405星 (ONEWEB-0405 )
卫星状态:
在轨 (已飞行1449 天)
发射日期:
2021-12-27 UTC
国别 :
英国 (GB)
星等 :
--
轨道信息
数据来源 国际轨道数据 AOE轨道数据
星历时间 2025-12-15T03:53:00+0800
23小时前
查看轨道信息
2025-12-15T20:00:00+0800
7小时前
查看轨道信息
半长轴 7567.883km 7567.884km
偏心率 0.0002058 0.000259
轨道倾角 87.918° 87.918°
近地点辐角 96.786° 96.650°
升交点赤经 12.050° 11.916°
平近点角 263.351° 209.598°
近地点 1188.19km 1187.788km
远地点 1191.306km 1191.71km
周期 109.200分钟 109.200分钟
每日圈数 13.186854 13.18685
详细信息
平衡模式:
三轴稳定
覆盖范围:
全球
运营商:
一网卫星公司
运营商所在国:
英国
制造商(研发单位):
一网卫星公司
制造商所在国:
英国
使用方式:
暂无
卫星简介
OneWeb卫星网络由648颗重约125公斤的微型卫星组成,运行在1200公里的轨道上。 每颗卫星都能够提供至少每秒8千兆位的吞吐量,以使用其高吞吐量的Ku频段有效载荷为家庭和移动平台提供互联网接入。该卫星仍在工作。
2D轨道图
3D轨道图
轨道高度分析图
轨道倾角分析图
轨道综合分析图
查看轨道综合分析图